カタログに戻る

ARIANE 2 DEB

LostHEO
NORAD 28568·DEBRIS·🇫🇷 France

打ち上げ Jan 27, 1989 から Guiana Space Centre

Loading…

次のパス (今後24時間)

TLE

古いSource: Space-Track

元期: Sep 17, 2015, 10:44 UTC

1 28568U 89006AK  15260.44768753  .00000014  00000-0  10000-3 0  9999
2 28568  11.7365   0.1124 6212483 317.8807   8.4652  2.24021894 90356

AllMySatでARIANE 2 DEBをリアルタイム追跡

Download on the App Store